owner,sensor,date,latitude,longitude,air_pressure(mBar),qcFlag 
TABS,ioos:station:wmo:42043:1,2017-02-02T00:00:00Z,28.9818,-94.9186,1017.2,11111222 
TABS,ioos:station:wmo:42043:1,2017-02-02T00:30:00Z,28.9818,-94.9186,1017.34,11111222 
TABS,ioos:station:wmo:42043:1,2017-02-02T01:00:00Z,28.9818,-94.9186,1017.59,11111222 
TABS,ioos:station:wmo:42043:1,2017-02-02T01:30:00Z,28.9818,-94.9186,1017.77,11111222 
TABS,ioos:station:wmo:42043:1,2017-02-02T02:00:00Z,28.9818,-94.9186,1017.89,11111222 
TABS,ioos:station:wmo:42043:1,2017-02-02T02:30:00Z,28.9818,-94.9186,1017.68,11111222 
TABS,ioos:station:wmo:42043:1,2017-02-02T03:00:00Z,28.9818,-94.9186,1017.83,11111222 
TABS,ioos:station:wmo:42043:1,2017-02-02T03:30:00Z,28.9818,-94.9186,1018.07,11111222 
TABS,ioos:station:wmo:42043:1,2017-02-02T04:00:00Z,28.9818,-94.9186,1018.17,11111222 
TABS,ioos:station:wmo:42043:1,2017-02-02T04:30:00Z,28.9818,-94.9186,1018.39,11111222 
TABS,ioos:station:wmo:42043:1,2017-02-02T05:00:00Z,28.9818,-94.9186,1018.24,11111222 
TABS,ioos:station:wmo:42043:1,2017-02-02T05:30:00Z,28.9818,-94.9186,1018.1,11111222 
TABS,ioos:station:wmo:42043:1,2017-02-02T06:00:00Z,28.9818,-94.9186,1018.29,11111222 
TABS,ioos:station:wmo:42043:1,2017-02-02T06:30:00Z,28.9818,-94.9186,1018.47,11111222 
TABS,ioos:station:wmo:42043:1,2017-02-02T07:00:00Z,28.9818,-94.9186,1018.57,11111222 
TABS,ioos:station:wmo:42043:1,2017-02-02T07:30:00Z,28.9818,-94.9186,1018.55,11111222 
TABS,ioos:station:wmo:42043:1,2017-02-02T08:00:00Z,28.9818,-94.9186,1018.65,11111222 
TABS,ioos:station:wmo:42043:1,2017-02-02T08:30:00Z,28.9818,-94.9186,1018.6,11111222 
TABS,ioos:station:wmo:42043:1,2017-02-02T09:00:00Z,28.9818,-94.9186,1018.48,11111222 
TABS,ioos:station:wmo:42043:1,2017-02-02T09:30:00Z,28.9818,-94.9186,1018.6,11111222 
TABS,ioos:station:wmo:42043:1,2017-02-02T10:00:00Z,28.9818,-94.9186,1018.87,11111222 
TABS,ioos:station:wmo:42043:1,2017-02-02T10:30:00Z,28.9818,-94.9186,1019.06,11111222 
TABS,ioos:station:wmo:42043:1,2017-02-02T11:00:00Z,28.9818,-94.9186,1019.36,11111222 
TABS,ioos:station:wmo:42043:1,2017-02-02T11:30:00Z,28.9818,-94.9186,1019.46,11111222 
TABS,ioos:station:wmo:42043:1,2017-02-02T12:00:00Z,28.9818,-94.9186,1019.8,11111222 
TABS,ioos:station:wmo:42043:1,2017-02-02T12:30:00Z,28.9818,-94.9186,1020.11,11111222 
TABS,ioos:station:wmo:42043:1,2017-02-02T13:00:00Z,28.9818,-94.9186,1020.34,11111222 
TABS,ioos:station:wmo:42043:1,2017-02-02T13:30:00Z,28.9818,-94.9186,1020.68,11111222 
TABS,ioos:station:wmo:42043:1,2017-02-02T14:00:00Z,28.9818,-94.9186,1021.21,11111222 
TABS,ioos:station:wmo:42043:1,2017-02-02T14:30:00Z,28.9818,-94.9186,1021.59,11111222 
TABS,ioos:station:wmo:42043:1,2017-02-02T15:00:00Z,28.9818,-94.9186,1021.92,11111222 
TABS,ioos:station:wmo:42043:1,2017-02-02T15:30:00Z,28.9818,-94.9186,1022.19,11111222 
TABS,ioos:station:wmo:42043:1,2017-02-02T16:00:00Z,28.9818,-94.9186,1022.55,11111222 
TABS,ioos:station:wmo:42043:1,2017-02-02T16:30:00Z,28.9818,-94.9186,1022.54,11111222 
TABS,ioos:station:wmo:42043:1,2017-02-02T17:00:00Z,28.9818,-94.9186,1022.43,11111222 
TABS,ioos:station:wmo:42043:1,2017-02-02T17:30:00Z,28.9818,-94.9186,1021.98,11111222 
TABS,ioos:station:wmo:42043:1,2017-02-02T18:00:00Z,28.9818,-94.9186,1021.41,11111222 
TABS,ioos:station:wmo:42043:1,2017-02-02T18:30:00Z,28.9818,-94.9186,1020.94,11111222 
TABS,ioos:station:wmo:42043:1,2017-02-02T19:00:00Z,28.9818,-94.9186,1020.84,11111222 
TABS,ioos:station:wmo:42043:1,2017-02-02T19:30:00Z,28.9818,-94.9186,1020.43,11111222 
TABS,ioos:station:wmo:42043:1,2017-02-02T20:00:00Z,28.9818,-94.9186,1020.36,11111222 
TABS,ioos:station:wmo:42043:1,2017-02-02T20:30:00Z,28.9818,-94.9186,1020.32,11111222 
TABS,ioos:station:wmo:42043:1,2017-02-02T21:00:00Z,28.9818,-94.9186,1020.39,11111222 
TABS,ioos:station:wmo:42043:1,2017-02-02T21:30:00Z,28.9818,-94.9186,1020.33,11111222 
TABS,ioos:station:wmo:42043:1,2017-02-02T22:00:00Z,28.9818,-94.9186,1020.36,11111222 
TABS,ioos:station:wmo:42043:1,2017-02-02T22:30:00Z,28.9818,-94.9186,1020.66,11111222 
TABS,ioos:station:wmo:42043:1,2017-02-02T23:00:00Z,28.9818,-94.9186,1020.77,11111222 
TABS,ioos:station:wmo:42043:1,2017-02-02T23:30:00Z,28.9818,-94.9186,1020.93,11111222 
TABS,ioos:station:wmo:42043:1,2017-02-03T00:00:00Z,28.9818,-94.9186,1021.03,11111222 
TABS,ioos:station:wmo:42043:1,2017-02-03T00:30:00Z,28.9818,-94.9186,1021.39,11111222 
TABS,ioos:station:wmo:42043:1,2017-02-03T01:00:00Z,28.9818,-94.9186,1021.65,11111222 
TABS,ioos:station:wmo:42043:1,2017-02-03T01:30:00Z,28.9818,-94.9186,1021.76,11111222 
TABS,ioos:station:wmo:42043:1,2017-02-03T02:00:00Z,28.9818,-94.9186,1021.91,11111222 
TABS,ioos:station:wmo:42043:1,2017-02-03T02:30:00Z,28.9818,-94.9186,1022.17,11111222 
TABS,ioos:station:wmo:42043:1,2017-02-03T03:00:00Z,28.9818,-94.9186,1022.47,11111222 
TABS,ioos:station:wmo:42043:1,2017-02-03T03:30:00Z,28.9818,-94.9186,1022.5,11111222 
TABS,ioos:station:wmo:42043:1,2017-02-03T04:00:00Z,28.9818,-94.9186,1022.62,11111222 
TABS,ioos:station:wmo:42043:1,2017-02-03T04:30:00Z,28.9818,-94.9186,1022.63,11111222 
TABS,ioos:station:wmo:42043:1,2017-02-03T05:00:00Z,28.9818,-94.9186,1022.78,11111222 
TABS,ioos:station:wmo:42043:1,2017-02-03T05:30:00Z,28.9818,-94.9186,1022.87,11111222 
TABS,ioos:station:wmo:42043:1,2017-02-03T06:00:00Z,28.9818,-94.9186,1022.53,11111222 
TABS,ioos:station:wmo:42043:1,2017-02-03T06:30:00Z,28.9818,-94.9186,1022.41,11111222 
TABS,ioos:station:wmo:42043:1,2017-02-03T07:00:00Z,28.9818,-94.9186,1022.24,11111222 
TABS,ioos:station:wmo:42043:1,2017-02-03T07:30:00Z,28.9818,-94.9186,1022.1,11111222 
TABS,ioos:station:wmo:42043:1,2017-02-03T08:00:00Z,28.9818,-94.9186,1022.36,11111222 
TABS,ioos:station:wmo:42043:1,2017-02-03T08:30:00Z,28.9818,-94.9186,1022.08,11111222 
TABS,ioos:station:wmo:42043:1,2017-02-03T09:00:00Z,28.9818,-94.9186,1022.12,11111222 
TABS,ioos:station:wmo:42043:1,2017-02-03T09:30:00Z,28.9818,-94.9186,1022.12,11111222 
TABS,ioos:station:wmo:42043:1,2017-02-03T10:00:00Z,28.9818,-94.9186,1022.16,11111222 
TABS,ioos:station:wmo:42043:1,2017-02-03T10:30:00Z,28.9818,-94.9186,1022.69,11111222 
TABS,ioos:station:wmo:42043:1,2017-02-03T11:00:00Z,28.9818,-94.9186,1023.18,11111222 
TABS,ioos:station:wmo:42043:1,2017-02-03T11:30:00Z,28.9818,-94.9186,1023.44,11111222 
TABS,ioos:station:wmo:42043:1,2017-02-03T12:00:00Z,28.9818,-94.9186,1024.01,11111222 
TABS,ioos:station:wmo:42043:1,2017-02-03T12:30:00Z,28.9818,-94.9186,1024.23,11111222 
TABS,ioos:station:wmo:42043:1,2017-02-03T13:00:00Z,28.9818,-94.9186,1024.4,11111222 
TABS,ioos:station:wmo:42043:1,2017-02-03T13:30:00Z,28.9818,-94.9186,1025.04,11111222 
TABS,ioos:station:wmo:42043:1,2017-02-03T14:00:00Z,28.9818,-94.9186,1025.26,11111222 
TABS,ioos:station:wmo:42043:1,2017-02-03T14:30:00Z,28.9818,-94.9186,1026.27,11111222 
TABS,ioos:station:wmo:42043:1,2017-02-03T15:00:00Z,28.9818,-94.9186,1026.15,11111222 
TABS,ioos:station:wmo:42043:1,2017-02-03T15:30:00Z,28.9818,-94.9186,1026.45,11111222 
TABS,ioos:station:wmo:42043:1,2017-02-03T16:00:00Z,28.9818,-94.9186,1027.11,11111222 
TABS,ioos:station:wmo:42043:1,2017-02-03T16:30:00Z,28.9818,-94.9186,1026.92,11111222 
TABS,ioos:station:wmo:42043:1,2017-02-03T17:00:00Z,28.9818,-94.9186,1026.84,11111222 
TABS,ioos:station:wmo:42043:1,2017-02-03T17:30:00Z,28.9818,-94.9186,1026.83,11111222 
TABS,ioos:station:wmo:42043:1,2017-02-03T18:00:00Z,28.9818,-94.9186,1026.53,11111222 
TABS,ioos:station:wmo:42043:1,2017-02-03T18:30:00Z,28.9818,-94.9186,1026.25,11111222 
TABS,ioos:station:wmo:42043:1,2017-02-03T19:00:00Z,28.9818,-94.9186,1025.64,11111222 
TABS,ioos:station:wmo:42043:1,2017-02-03T19:30:00Z,28.9818,-94.9186,1025.62,11111222 
TABS,ioos:station:wmo:42043:1,2017-02-03T20:00:00Z,28.9818,-94.9186,1025.22,11111222 
TABS,ioos:station:wmo:42043:1,2017-02-03T20:30:00Z,28.9818,-94.9186,1024.81,11111222 
TABS,ioos:station:wmo:42043:1,2017-02-03T21:00:00Z,28.9818,-94.9186,1024.37,11111222 
TABS,ioos:station:wmo:42043:1,2017-02-03T21:30:00Z,28.9818,-94.9186,1024.53,11111222 
TABS,ioos:station:wmo:42043:1,2017-02-03T22:00:00Z,28.9818,-94.9186,1024.61,11111222 
TABS,ioos:station:wmo:42043:1,2017-02-03T22:30:00Z,28.9818,-94.9186,1024.33,11111222 
TABS,ioos:station:wmo:42043:1,2017-02-03T23:00:00Z,28.9818,-94.9186,1024.56,11111222 
TABS,ioos:station:wmo:42043:1,2017-02-03T23:30:00Z,28.9818,-94.9186,1025.07,11111222 
TABS,ioos:station:wmo:42043:1,2017-02-04T00:00:00Z,28.9818,-94.9186,1025.53,11111222 
TABS,ioos:station:wmo:42043:1,2017-02-04T00:30:00Z,28.9818,-94.9186,1026.15,11111222 
TABS,ioos:station:wmo:42043:1,2017-02-04T01:00:00Z,28.9818,-94.9186,1026.37,11111222 
TABS,ioos:station:wmo:42043:1,2017-02-04T01:30:00Z,28.9818,-94.9186,1026.21,11111222 
TABS,ioos:station:wmo:42043:1,2017-02-04T02:00:00Z,28.9818,-94.9186,1026.88,11111222 
TABS,ioos:station:wmo:42043:1,2017-02-04T02:30:00Z,28.9818,-94.9186,1027.3,11111222 
TABS,ioos:station:wmo:42043:1,2017-02-04T03:00:00Z,28.9818,-94.9186,1027.17,11111222 
TABS,ioos:station:wmo:42043:1,2017-02-04T03:30:00Z,28.9818,-94.9186,1027.28,11111222 
TABS,ioos:station:wmo:42043:1,2017-02-04T04:00:00Z,28.9818,-94.9186,1027.08,11111222 
TABS,ioos:station:wmo:42043:1,2017-02-04T04:30:00Z,28.9818,-94.9186,1027.17,11111222 
TABS,ioos:station:wmo:42043:1,2017-02-04T05:00:00Z,28.9818,-94.9186,1027.08,11111222 
TABS,ioos:station:wmo:42043:1,2017-02-04T05:30:00Z,28.9818,-94.9186,1026.85,11111222 
TABS,ioos:station:wmo:42043:1,2017-02-04T06:00:00Z,28.9818,-94.9186,1026.65,11111222 
TABS,ioos:station:wmo:42043:1,2017-02-04T06:30:00Z,28.9818,-94.9186,1026.52,11111222 
TABS,ioos:station:wmo:42043:1,2017-02-04T07:00:00Z,28.9818,-94.9186,1026.32,11111222 
TABS,ioos:station:wmo:42043:1,2017-02-04T07:30:00Z,28.9818,-94.9186,1025.51,11111222 
TABS,ioos:station:wmo:42043:1,2017-02-04T08:00:00Z,28.9818,-94.9186,1026.13,11111222 
TABS,ioos:station:wmo:42043:1,2017-02-04T08:30:00Z,28.9818,-94.9186,1024.96,11111222 
TABS,ioos:station:wmo:42043:1,2017-02-04T09:00:00Z,28.9818,-94.9186,1025.09,11111222 
TABS,ioos:station:wmo:42043:1,2017-02-04T09:30:00Z,28.9818,-94.9186,1025.27,11111222 
TABS,ioos:station:wmo:42043:1,2017-02-04T10:00:00Z,28.9818,-94.9186,1025.14,11111222 
TABS,ioos:station:wmo:42043:1,2017-02-04T10:30:00Z,28.9818,-94.9186,1025.12,11111222 
TABS,ioos:station:wmo:42043:1,2017-02-04T11:00:00Z,28.9818,-94.9186,1024.92,11111222 
TABS,ioos:station:wmo:42043:1,2017-02-04T11:30:00Z,28.9818,-94.9186,1024.64,11111222 
TABS,ioos:station:wmo:42043:1,2017-02-04T12:00:00Z,28.9818,-94.9186,1024.45,11111222 
TABS,ioos:station:wmo:42043:1,2017-02-04T12:30:00Z,28.9818,-94.9186,1024.61,11111222 
TABS,ioos:station:wmo:42043:1,2017-02-04T13:00:00Z,28.9818,-94.9186,1024.6,11111222 
TABS,ioos:station:wmo:42043:1,2017-02-04T13:30:00Z,28.9818,-94.9186,1024.71,11111222 
TABS,ioos:station:wmo:42043:1,2017-02-04T14:00:00Z,28.9818,-94.9186,1024.81,11111222 
TABS,ioos:station:wmo:42043:1,2017-02-04T14:30:00Z,28.9818,-94.9186,1024.74,11111222 
TABS,ioos:station:wmo:42043:1,2017-02-04T15:00:00Z,28.9818,-94.9186,1024.82,11111222 
TABS,ioos:station:wmo:42043:1,2017-02-04T15:30:00Z,28.9818,-94.9186,1025.51,11111222 
TABS,ioos:station:wmo:42043:1,2017-02-04T16:00:00Z,28.9818,-94.9186,1025.52,11111222 
TABS,ioos:station:wmo:42043:1,2017-02-04T16:30:00Z,28.9818,-94.9186,1025.3,11111222 
TABS,ioos:station:wmo:42043:1,2017-02-04T17:00:00Z,28.9818,-94.9186,1025.65,11111222 
TABS,ioos:station:wmo:42043:1,2017-02-04T17:30:00Z,28.9818,-94.9186,1025.07,11111222 
TABS,ioos:station:wmo:42043:1,2017-02-04T18:00:00Z,28.9818,-94.9186,1024.59,11111222 
TABS,ioos:station:wmo:42043:1,2017-02-04T18:30:00Z,28.9818,-94.9186,1024.05,11111222 
TABS,ioos:station:wmo:42043:1,2017-02-04T19:00:00Z,28.9818,-94.9186,1023.41,11111222 
TABS,ioos:station:wmo:42043:1,2017-02-04T19:30:00Z,28.9818,-94.9186,1022.91,11111222 
TABS,ioos:station:wmo:42043:1,2017-02-04T20:00:00Z,28.9818,-94.9186,1022.32,11111222 
TABS,ioos:station:wmo:42043:1,2017-02-04T20:30:00Z,28.9818,-94.9186,1021.89,11111222 
TABS,ioos:station:wmo:42043:1,2017-02-04T21:00:00Z,28.9818,-94.9186,1021.4,11111222 
TABS,ioos:station:wmo:42043:1,2017-02-04T21:30:00Z,28.9818,-94.9186,1021.16,11111222 
TABS,ioos:station:wmo:42043:1,2017-02-04T22:00:00Z,28.9818,-94.9186,1021.09,11111222 
TABS,ioos:station:wmo:42043:1,2017-02-04T22:30:00Z,28.9818,-94.9186,1020.85,11111222 
TABS,ioos:station:wmo:42043:1,2017-02-04T23:00:00Z,28.9818,-94.9186,1021.02,11111222 
TABS,ioos:station:wmo:42043:1,2017-02-04T23:30:00Z,28.9818,-94.9186,1020.85,11111222 
TABS,ioos:station:wmo:42043:1,2017-02-05T00:00:00Z,28.9818,-94.9186,1020.83,11111222 
TABS,ioos:station:wmo:42043:1,2017-02-05T00:30:00Z,28.9818,-94.9186,1020.95,11111222 
TABS,ioos:station:wmo:42043:1,2017-02-05T01:00:00Z,28.9818,-94.9186,1020.88,11111222 
TABS,ioos:station:wmo:42043:1,2017-02-05T01:30:00Z,28.9818,-94.9186,1020.89,11111222 
TABS,ioos:station:wmo:42043:1,2017-02-05T02:00:00Z,28.9818,-94.9186,1021.11,11111222 
TABS,ioos:station:wmo:42043:1,2017-02-05T02:30:00Z,28.9818,-94.9186,1021.18,11111222 
TABS,ioos:station:wmo:42043:1,2017-02-05T03:00:00Z,28.9818,-94.9186,1021.11,11111222 
TABS,ioos:station:wmo:42043:1,2017-02-05T03:30:00Z,28.9818,-94.9186,1021.06,11111222 
TABS,ioos:station:wmo:42043:1,2017-02-05T04:00:00Z,28.9818,-94.9186,1020.93,11111222 
TABS,ioos:station:wmo:42043:1,2017-02-05T04:30:00Z,28.9818,-94.9186,1020.83,11111222 
TABS,ioos:station:wmo:42043:1,2017-02-05T05:00:00Z,28.9818,-94.9186,1020.36,11111222 
TABS,ioos:station:wmo:42043:1,2017-02-05T05:30:00Z,28.9818,-94.9186,1020.21,11111222 
TABS,ioos:station:wmo:42043:1,2017-02-05T06:00:00Z,28.9818,-94.9186,1019.76,11111222 
TABS,ioos:station:wmo:42043:1,2017-02-05T06:30:00Z,28.9818,-94.9186,1019.72,11111222 
TABS,ioos:station:wmo:42043:1,2017-02-05T07:00:00Z,28.9818,-94.9186,1019.77,11111222 
TABS,ioos:station:wmo:42043:1,2017-02-05T07:30:00Z,28.9818,-94.9186,1019.22,11111222 
TABS,ioos:station:wmo:42043:1,2017-02-05T08:00:00Z,28.9818,-94.9186,1018.93,11111222 
TABS,ioos:station:wmo:42043:1,2017-02-05T08:30:00Z,28.9818,-94.9186,1018.86,11111222 
TABS,ioos:station:wmo:42043:1,2017-02-05T09:00:00Z,28.9818,-94.9186,1018.61,11111222 
TABS,ioos:station:wmo:42043:1,2017-02-05T09:30:00Z,28.9818,-94.9186,1018.38,11111222 
TABS,ioos:station:wmo:42043:1,2017-02-05T10:00:00Z,28.9818,-94.9186,1018.57,11111222 
TABS,ioos:station:wmo:42043:1,2017-02-05T10:30:00Z,28.9818,-94.9186,1018.85,11111222 
TABS,ioos:station:wmo:42043:1,2017-02-05T11:00:00Z,28.9818,-94.9186,1018.83,11111222 
TABS,ioos:station:wmo:42043:1,2017-02-05T11:30:00Z,28.9818,-94.9186,1018.93,11111222 
TABS,ioos:station:wmo:42043:1,2017-02-05T12:00:00Z,28.9818,-94.9186,1019.24,11111222 
TABS,ioos:station:wmo:42043:1,2017-02-05T12:30:00Z,28.9818,-94.9186,1019.59,11111222 
TABS,ioos:station:wmo:42043:1,2017-02-05T13:00:00Z,28.9818,-94.9186,1019.87,11111222 
TABS,ioos:station:wmo:42043:1,2017-02-05T13:30:00Z,28.9818,-94.9186,1020.01,11111222 
TABS,ioos:station:wmo:42043:1,2017-02-05T14:00:00Z,28.9818,-94.9186,1020.24,11111222 
TABS,ioos:station:wmo:42043:1,2017-02-05T14:30:00Z,28.9818,-94.9186,1020.64,11111222 
TABS,ioos:station:wmo:42043:1,2017-02-05T15:00:00Z,28.9818,-94.9186,1020.97,11111222 
TABS,ioos:station:wmo:42043:1,2017-02-05T15:30:00Z,28.9818,-94.9186,1021.18,11111222 
TABS,ioos:station:wmo:42043:1,2017-02-05T16:00:00Z,28.9818,-94.9186,1021.46,11111222 
TABS,ioos:station:wmo:42043:1,2017-02-05T16:30:00Z,28.9818,-94.9186,1021.57,11111222 
TABS,ioos:station:wmo:42043:1,2017-02-05T17:00:00Z,28.9818,-94.9186,1021.49,11111222 
TABS,ioos:station:wmo:42043:1,2017-02-05T17:30:00Z,28.9818,-94.9186,1021.15,11111222 
TABS,ioos:station:wmo:42043:1,2017-02-05T18:00:00Z,28.9818,-94.9186,1020.44,11111222 
TABS,ioos:station:wmo:42043:1,2017-02-05T18:30:00Z,28.9818,-94.9186,1019.8,11111222 
TABS,ioos:station:wmo:42043:1,2017-02-05T19:00:00Z,28.9818,-94.9186,1019.41,11111222 
TABS,ioos:station:wmo:42043:1,2017-02-05T19:30:00Z,28.9818,-94.9186,1018.86,11111222 
TABS,ioos:station:wmo:42043:1,2017-02-05T20:00:00Z,28.9818,-94.9186,1018.56,11111222 
TABS,ioos:station:wmo:42043:1,2017-02-05T20:30:00Z,28.9818,-94.9186,1018.15,11111222 
TABS,ioos:station:wmo:42043:1,2017-02-05T21:00:00Z,28.9818,-94.9186,1018.04,11111222 
TABS,ioos:station:wmo:42043:1,2017-02-05T21:30:00Z,28.9818,-94.9186,1018.22,11111222 
TABS,ioos:station:wmo:42043:1,2017-02-05T22:00:00Z,28.9818,-94.9186,1018.41,11111222 
TABS,ioos:station:wmo:42043:1,2017-02-05T22:30:00Z,28.9818,-94.9186,1018.43,11111222 
TABS,ioos:station:wmo:42043:1,2017-02-05T23:00:00Z,28.9818,-94.9186,1018.31,11111222 
TABS,ioos:station:wmo:42043:1,2017-02-05T23:30:00Z,28.9818,-94.9186,1018.35,11111222 
TABS,ioos:station:wmo:42043:1,2017-02-06T00:00:00Z,28.9818,-94.9186,1018.3,11111222 
TABS,ioos:station:wmo:42043:1,2017-02-06T00:30:00Z,28.9818,-94.9186,1018.39,11111222 
TABS,ioos:station:wmo:42043:1,2017-02-06T01:00:00Z,28.9818,-94.9186,1018.51,11111222 
TABS,ioos:station:wmo:42043:1,2017-02-06T01:30:00Z,28.9818,-94.9186,1018.64,11111222 
TABS,ioos:station:wmo:42043:1,2017-02-06T02:00:00Z,28.9818,-94.9186,1018.78,11111222 
TABS,ioos:station:wmo:42043:1,2017-02-06T02:30:00Z,28.9818,-94.9186,1018.55,11111222 
TABS,ioos:station:wmo:42043:1,2017-02-06T03:00:00Z,28.9818,-94.9186,1018.43,11111222 
TABS,ioos:station:wmo:42043:1,2017-02-06T03:30:00Z,28.9818,-94.9186,1018.23,11111222 
TABS,ioos:station:wmo:42043:1,2017-02-06T04:00:00Z,28.9818,-94.9186,1018.27,11111222 
TABS,ioos:station:wmo:42043:1,2017-02-06T04:30:00Z,28.9818,-94.9186,1018.29,11111222 
TABS,ioos:station:wmo:42043:1,2017-02-06T05:00:00Z,28.9818,-94.9186,1018.05,11111222 
TABS,ioos:station:wmo:42043:1,2017-02-06T05:30:00Z,28.9818,-94.9186,1017.79,11111222 
TABS,ioos:station:wmo:42043:1,2017-02-06T06:00:00Z,28.9818,-94.9186,1017.41,11111222 
TABS,ioos:station:wmo:42043:1,2017-02-06T06:30:00Z,28.9818,-94.9186,1017.05,11111222 
TABS,ioos:station:wmo:42043:1,2017-02-06T07:00:00Z,28.9818,-94.9186,1016.66,11111222 
TABS,ioos:station:wmo:42043:1,2017-02-06T07:30:00Z,28.9818,-94.9186,1016.34,11111222 
TABS,ioos:station:wmo:42043:1,2017-02-06T08:00:00Z,28.9818,-94.9186,1015.92,11111222 
TABS,ioos:station:wmo:42043:1,2017-02-06T08:30:00Z,28.9818,-94.9186,1015.95,11111222 
TABS,ioos:station:wmo:42043:1,2017-02-06T09:00:00Z,28.9818,-94.9186,1015.98,11111222 
TABS,ioos:station:wmo:42043:1,2017-02-06T09:30:00Z,28.9818,-94.9186,1016.16,11111222 
TABS,ioos:station:wmo:42043:1,2017-02-06T10:00:00Z,28.9818,-94.9186,1016.1,11111222 
TABS,ioos:station:wmo:42043:1,2017-02-06T10:30:00Z,28.9818,-94.9186,1016.2,11111222 
TABS,ioos:station:wmo:42043:1,2017-02-06T11:00:00Z,28.9818,-94.9186,1016.16,11111222 
TABS,ioos:station:wmo:42043:1,2017-02-06T11:30:00Z,28.9818,-94.9186,1016.47,11111222 
TABS,ioos:station:wmo:42043:1,2017-02-06T12:00:00Z,28.9818,-94.9186,1016.87,11111222 
TABS,ioos:station:wmo:42043:1,2017-02-06T12:30:00Z,28.9818,-94.9186,1017.22,11111222 
TABS,ioos:station:wmo:42043:1,2017-02-06T13:00:00Z,28.9818,-94.9186,1017.55,11111222 
TABS,ioos:station:wmo:42043:1,2017-02-06T13:30:00Z,28.9818,-94.9186,1017.47,11111222 
TABS,ioos:station:wmo:42043:1,2017-02-06T14:00:00Z,28.9818,-94.9186,1017.71,11111222 
TABS,ioos:station:wmo:42043:1,2017-02-06T14:30:00Z,28.9818,-94.9186,1017.98,11111222 
TABS,ioos:station:wmo:42043:1,2017-02-06T15:00:00Z,28.9818,-94.9186,1018.19,11111222 
TABS,ioos:station:wmo:42043:1,2017-02-06T15:30:00Z,28.9818,-94.9186,1018.59,11111222 
TABS,ioos:station:wmo:42043:1,2017-02-06T16:00:00Z,28.9818,-94.9186,1018.43,11111222 
TABS,ioos:station:wmo:42043:1,2017-02-06T16:30:00Z,28.9818,-94.9186,1018.27,11111222 
TABS,ioos:station:wmo:42043:1,2017-02-06T17:00:00Z,28.9818,-94.9186,1017.95,11111222 
TABS,ioos:station:wmo:42043:1,2017-02-06T17:30:00Z,28.9818,-94.9186,1017.69,11111222 
TABS,ioos:station:wmo:42043:1,2017-02-06T18:00:00Z,28.9818,-94.9186,1016.98,11111222 
TABS,ioos:station:wmo:42043:1,2017-02-06T18:30:00Z,28.9818,-94.9186,1016.51,11111222 
TABS,ioos:station:wmo:42043:1,2017-02-06T19:00:00Z,28.9818,-94.9186,1015.71,11111222 
TABS,ioos:station:wmo:42043:1,2017-02-06T19:30:00Z,28.9818,-94.9186,1015.09,11111222 
TABS,ioos:station:wmo:42043:1,2017-02-06T20:00:00Z,28.9818,-94.9186,1014.71,11111222 
TABS,ioos:station:wmo:42043:1,2017-02-06T20:30:00Z,28.9818,-94.9186,1014.27,11111222 
TABS,ioos:station:wmo:42043:1,2017-02-06T21:00:00Z,28.9818,-94.9186,1013.73,11111222 
TABS,ioos:station:wmo:42043:1,2017-02-06T21:30:00Z,28.9818,-94.9186,1013.73,11111222 
TABS,ioos:station:wmo:42043:1,2017-02-06T22:00:00Z,28.9818,-94.9186,1013.55,11111222 
TABS,ioos:station:wmo:42043:1,2017-02-06T22:30:00Z,28.9818,-94.9186,1013.54,11111222 
TABS,ioos:station:wmo:42043:1,2017-02-06T23:00:00Z,28.9818,-94.9186,1013.34,11111222 
TABS,ioos:station:wmo:42043:1,2017-02-06T23:30:00Z,28.9818,-94.9186,1012.63,11111222 
TABS,ioos:station:wmo:42043:1,2017-02-07T00:00:00Z,28.9818,-94.9186,1012.58,11111222 
TABS,ioos:station:wmo:42043:1,2017-02-07T00:30:00Z,28.9818,-94.9186,1012.88,11111222 
TABS,ioos:station:wmo:42043:1,2017-02-07T01:00:00Z,28.9818,-94.9186,1014.08,11111222 
TABS,ioos:station:wmo:42043:1,2017-02-07T01:30:00Z,28.9818,-94.9186,1013.1,11111222 
TABS,ioos:station:wmo:42043:1,2017-02-07T02:00:00Z,28.9818,-94.9186,1012.78,11111222 
TABS,ioos:station:wmo:42043:1,2017-02-07T02:30:00Z,28.9818,-94.9186,1013.4,11111222 
TABS,ioos:station:wmo:42043:1,2017-02-07T03:00:00Z,28.9818,-94.9186,1013.42,11111222 
TABS,ioos:station:wmo:42043:1,2017-02-07T03:30:00Z,28.9818,-94.9186,1012.94,11111222 
TABS,ioos:station:wmo:42043:1,2017-02-07T04:00:00Z,28.9818,-94.9186,1012.94,11111222 
TABS,ioos:station:wmo:42043:1,2017-02-07T04:30:00Z,28.9818,-94.9186,1012.79,11111222 
TABS,ioos:station:wmo:42043:1,2017-02-07T05:00:00Z,28.9818,-94.9186,1012.55,11111222 
TABS,ioos:station:wmo:42043:1,2017-02-07T05:30:00Z,28.9818,-94.9186,1012.25,11111222 
TABS,ioos:station:wmo:42043:1,2017-02-07T06:00:00Z,28.9818,-94.9186,1012.11,11111222 
TABS,ioos:station:wmo:42043:1,2017-02-07T06:30:00Z,28.9818,-94.9186,1011.9,11111222 
TABS,ioos:station:wmo:42043:1,2017-02-07T07:00:00Z,28.9818,-94.9186,1011.74,11111222 
TABS,ioos:station:wmo:42043:1,2017-02-07T07:30:00Z,28.9818,-94.9186,1011.56,11111222 
TABS,ioos:station:wmo:42043:1,2017-02-07T08:00:00Z,28.9818,-94.9186,1011.12,11111222 
TABS,ioos:station:wmo:42043:1,2017-02-07T08:30:00Z,28.9818,-94.9186,1010.25,11111222 
TABS,ioos:station:wmo:42043:1,2017-02-07T09:00:00Z,28.9818,-94.9186,1010.58,11111222 
TABS,ioos:station:wmo:42043:1,2017-02-07T09:30:00Z,28.9818,-94.9186,1010.09,11111222 
TABS,ioos:station:wmo:42043:1,2017-02-07T10:00:00Z,28.9818,-94.9186,1010.06,11111222 
TABS,ioos:station:wmo:42043:1,2017-02-07T10:30:00Z,28.9818,-94.9186,1010.22,11111222 
TABS,ioos:station:wmo:42043:1,2017-02-07T11:00:00Z,28.9818,-94.9186,1010.31,11111222 
TABS,ioos:station:wmo:42043:1,2017-02-07T11:30:00Z,28.9818,-94.9186,1010.75,11111222 
TABS,ioos:station:wmo:42043:1,2017-02-07T12:00:00Z,28.9818,-94.9186,1011.02,11111222 
TABS,ioos:station:wmo:42043:1,2017-02-07T12:30:00Z,28.9818,-94.9186,1010.92,11111222 
TABS,ioos:station:wmo:42043:1,2017-02-07T13:00:00Z,28.9818,-94.9186,1011.37,11111222 
TABS,ioos:station:wmo:42043:1,2017-02-07T13:30:00Z,28.9818,-94.9186,1011.76,11111222 
TABS,ioos:station:wmo:42043:1,2017-02-07T14:00:00Z,28.9818,-94.9186,1012.07,11111222 
TABS,ioos:station:wmo:42043:1,2017-02-07T14:30:00Z,28.9818,-94.9186,1012.06,11111222 
TABS,ioos:station:wmo:42043:1,2017-02-07T15:00:00Z,28.9818,-94.9186,1012.17,11111222 
TABS,ioos:station:wmo:42043:1,2017-02-07T15:30:00Z,28.9818,-94.9186,1012.82,11111222 
TABS,ioos:station:wmo:42043:1,2017-02-07T16:00:00Z,28.9818,-94.9186,1012.7,11111222 
TABS,ioos:station:wmo:42043:1,2017-02-07T16:30:00Z,28.9818,-94.9186,1012.34,11111222 
TABS,ioos:station:wmo:42043:1,2017-02-07T17:00:00Z,28.9818,-94.9186,1012.09,11111222 
TABS,ioos:station:wmo:42043:1,2017-02-07T17:30:00Z,28.9818,-94.9186,1011.7,11111222 
TABS,ioos:station:wmo:42043:1,2017-02-07T18:00:00Z,28.9818,-94.9186,1011.24,11111222 
TABS,ioos:station:wmo:42043:1,2017-02-07T18:30:00Z,28.9818,-94.9186,1011.22,11111222 